TimeCST,TemperatureF,Dew PointF,Humidity,Sea Level PressureIn,VisibilityMPH,Wind Direction,Wind SpeedMPH,Gust SpeedMPH,PrecipitationIn,Events,Conditions,WindDirDegrees,DateUTC
12:54 AM,48.9,37.9,66,30.09,10.0,North,6.9,-,N/A,,Clear,10,2012-12-04 06:54:00
1:54 AM,50.0,37.9,63,30.10,10.0,NNE,8.1,-,N/A,,Clear,20,2012-12-04 07:54:00
2:54 AM,46.9,37.9,71,30.14,10.0,North,6.9,-,N/A,,Clear,350,2012-12-04 08:54:00
3:54 AM,45.0,36.0,71,30.15,10.0,North,4.6,-,N/A,,Clear,10,2012-12-04 09:54:00
4:54 AM,44.1,35.1,71,30.18,10.0,North,9.2,-,N/A,,Clear,360,2012-12-04 10:54:00
5:54 AM,43.0,34.0,71,30.22,10.0,North,6.9,-,N/A,,Clear,10,2012-12-04 11:54:00
6:54 AM,41.0,34.0,76,30.25,10.0,North,9.2,-,N/A,,Clear,350,2012-12-04 12:54:00
7:54 AM,37.9,33.1,83,30.29,10.0,North,6.9,-,N/A,,Clear,350,2012-12-04 13:54:00
8:54 AM,44.1,33.1,65,30.31,10.0,North,8.1,-,N/A,,Clear,360,2012-12-04 14:54:00
9:54 AM,50.0,33.1,52,30.32,10.0,North,6.9,-,N/A,,Clear,10,2012-12-04 15:54:00
10:54 AM,55.9,30.0,37,30.32,8.0,NNE,9.2,-,N/A,,Clear,30,2012-12-04 16:54:00
12:54 PM,62.1,25.0,24,30.30,10.0,North,11.5,16.1,N/A,,Clear,10,2012-12-04 18:54:00
1:54 PM,63.0,26.1,25,30.27,10.0,NNW,9.2,-,N/A,,Clear,340,2012-12-04 19:54:00
2:54 PM,64.0,23.0,21,30.28,10.0,NNW,10.4,-,N/A,,Clear,340,2012-12-04 20:54:00
3:54 PM,63.0,25.0,24,30.29,10.0,North,4.6,-,N/A,,Clear,350,2012-12-04 21:54:00
4:54 PM,59.0,28.9,32,30.29,10.0,Calm,Calm,-,N/A,,Clear,0,2012-12-04 22:54:00
5:54 PM,48.0,28.9,48,30.31,10.0,WNW,3.5,-,N/A,,Clear,300,2012-12-04 23:54:00
6:54 PM,46.0,27.0,47,30.32,10.0,Calm,Calm,-,N/A,,Clear,0,2012-12-05 00:54:00
7:54 PM,45.0,28.0,52,30.32,10.0,Calm,Calm,-,N/A,,Clear,0,2012-12-05 01:54:00
8:54 PM,39.0,27.0,62,30.33,10.0,Calm,Calm,-,N/A,,Clear,0,2012-12-05 02:54:00
9:54 PM,37.9,27.0,65,30.33,10.0,Calm,Calm,-,N/A,,Clear,0,2012-12-05 03:54:00
10:54 PM,35.1,26.1,70,30.33,10.0,Calm,Calm,-,N/A,,Clear,0,2012-12-05 04:54:00
11:54 PM,36.0,26.1,67,30.35,10.0,Calm,Calm,-,N/A,,Clear,0,2012-12-05 05:54:00